"Pseudo-MPEC" for P10QBFM

Created 2019 Aug 14 12:07:08 UT using Find_Orb

Click here for an explanation of pseudo-MPECs

 
 Astrometry: 
     P10QBFM  C2019 08 117[DB]0]!V/F586Astrometry6h6o-X[jI;Yn]9gtt11uy2+bX@nVF51
     P10QBFM  C2019 08 12B^Nkl-L6VB+5kh(XCX3?1yJtWEN%Uq*bd7iTG1`7V(?4yB2W/QC/F51
     P10QBFM  C2019 08 12U=@TEFdH%(9H\`3vwjY=redacted;XX9jiHu2W+)x_)x#EK$xdL4F51
     P10QBFM  C2019 08 12K`1*D?bVX-E[(283ojMxhPD^\f)KkC6nMZ356clickFB5'%Gs8=dF51
     P10QBFM  C2019 08 12e;,p9krp'^yR*BBxoe^le[(l`)@RF*r6h/[`%cx$ohere(8ZonF.F51
     P10QBFM  C2019 08 13;eiC2)LR[M\-CLu,.5fKhjtJkf+:[+Hvpks(tyZ0pq#Cm0for+\vF51
     P10QBFM ^C2019 08 13.52018900 18 21.007+31 36 46.95   ~8DI7 21.29GVNEOCP568
     P10QBFM ^C2019 08 13.52139000 18 21.136+31 36 48.90   ~8DI7 21.25GVNEOCP568
     P10QBFM  C2019 08 130J@*ueqZ,e(\5tUHTR2[#*^QH+gDo8eygPJG0Vf98!gGsiL7)`O)F51
     P10QBFM ^C2019 08 13.52258400 18 21.259+31 36 50.74   ~8DI7 21.41GVNEOCP568
     P10QBFM  C2019 08 13kxhXv]Ja67l;^VKJI6eyZA%6X.vbkA`Yy\pJxa;DTMX$k^nW8Nx=F51
     P10QBFM  C2019 08 13d1:sq[3+[oU_GTkr.FFgJk%H=mexplanation!51f;L_f-LKBA[[F51

Station data:
(568) Mauna Kea  (N19.826116 W155.472200)  US/Hawaii.
(F51) Pan-STARRS 1, Haleakala  (N20.707235 W156.255910)  US/Hawaii.
   Observers N. Primak, A. Schultz, S. Watters, J. Thiel, T. Goggia. Measurer
   PS1 Science Consortium. 1.8-m Ritchey-Chrétien + CCD.

Orbital elements:  P10QBFM
   Perihelion 2019 Aug 4.927848 +/- 0.471 TT = 22:16:06 (JD 2458700.427848)
Epoch 2019 Aug 13.0 TT = JDT 2458708.5   Earth MOID: 0.2857   Ma: 0.0575
M   1.93660354 +/- 0.10             (J2000 ecliptic)          AutoNEOCP
n   0.23991167 +/- 0.0199           Peri.   61.50347 +/- 0.8
a   2.56508520 +/- 0.142            Node   265.80126 +/- 0.7
e   0.5101081 +/- 0.0247            Incl.    9.05012 +/- 0.19
P   4.11                   H 21.6   G  0.15   U 10.1  
q 1.25661431 +/- 0.00689    Q 3.87355610 +/- 0.29
From 12 observations 2019 Aug. 11-13; mean residual 0".10
Residuals in arcseconds: 
190811 F51  .03+  .02-    190812 F51  .02+  .09-    190813 F51  .02+  .09-    
190812 F51  .07+  .07+    190813 F51  .08+  .19+    190813 568  .02-  .03-    
190812 F51  .23-  .16-    190813 568  .03-  .08-    190813 F51  .04+  .09+    
190812 F51  .06+  .22+    190813 568  .01+  .00     190813 F51  .06-  .03-    

Ephemerides (geocentric):
Date (UTC) HH   RA              Dec         delta   r     elong  mag " sig PA
---- -- -- --  -------------   -----------  ------ ------ -----  --- ---- ---
2019 08 14 12  00 20 12.013   +32 01 39.04  .40715 1.2610 118.9 21.9 .130  17
2019 08 14 13  00 20 16.697   +32 02 41.69  .40714 1.2610 118.9 21.9 .144  18
2019 08 14 14  00 20 21.377   +32 03 44.25  .40713 1.2611 118.9 21.9 .159  19
2019 08 14 15  00 20 26.052   +32 04 46.74  .40713 1.2611 118.9 21.9 .173  20
2019 08 14 16  00 20 30.724   +32 05 49.15  .40712 1.2611 118.9 21.9 .188  20
2019 08 14 17  00 20 35.391   +32 06 51.48  .40711 1.2612 118.9 21.9 .204  21
2019 08 14 18  00 20 40.054   +32 07 53.72  .40710 1.2612 118.9 21.9 .219  21
2019 08 14 19  00 20 44.713   +32 08 55.89  .40710 1.2612 118.9 21.9 .236  22
2019 08 14 20  00 20 49.368   +32 09 57.98  .40709 1.2613 118.9 21.9 .252  22
2019 08 14 21  00 20 54.019   +32 10 59.98  .40708 1.2613 118.9 21.9 .269  23
2019 08 14 22  00 20 58.665   +32 12 01.91  .40707 1.2614 119.0 21.9 .286  23
2019 08 14 23  00 21 03.308   +32 13 03.75  .40707 1.2614 119.0 21.9 .303  24
2019 08 15 00  00 21 07.946   +32 14 05.51  .40706 1.2614 119.0 21.9 .321  24
2019 08 15 01  00 21 12.580   +32 15 07.19  .40705 1.2615 119.0 21.9 .339  24
2019 08 15 02  00 21 17.210   +32 16 08.80  .40705 1.2615 119.0 21.9 .358  25
2019 08 15 03  00 21 21.835   +32 17 10.32  .40704 1.2616 119.0 21.9 .377  25
2019 08 15 04  00 21 26.457   +32 18 11.76  .40703 1.2616 119.0 21.9 .396  25
2019 08 15 05  00 21 31.074   +32 19 13.12  .40703 1.2616 119.0 21.9 .415  25
2019 08 15 06  00 21 35.687   +32 20 14.39  .40702 1.2617 119.0 21.9 .435  26
2019 08 15 07  00 21 40.296   +32 21 15.59  .40701 1.2617 119.0 21.9 .455  26
2019 08 15 08  00 21 44.900   +32 22 16.71  .40701 1.2618 119.1 21.9 .476  26
2019 08 15 09  00 21 49.500   +32 23 17.74  .40700 1.2618 119.1 21.9 .497  26
2019 08 15 10  00 21 54.097   +32 24 18.70  .40699 1.2619 119.1 21.9 .518  27
2019 08 15 11  00 21 58.688   +32 25 19.57  .40699 1.2619 119.1 21.9 .539  27
2019 08 15 12  00 22 03.276   +32 26 20.36  .40698 1.2619 119.1 21.9 .561  27
2019 08 15 13  00 22 07.859   +32 27 21.07  .40698 1.2620 119.1 21.9 .583  27
2019 08 15 14  00 22 12.439   +32 28 21.70  .40697 1.2620 119.1 21.9 .606  27
2019 08 15 15  00 22 17.013   +32 29 22.25  .40696 1.2621 119.1 21.9 .628  27
2019 08 15 16  00 22 21.584   +32 30 22.72  .40696 1.2621 119.1 21.9 .652  28
2019 08 15 17  00 22 26.150   +32 31 23.11  .40695 1.2621 119.2 21.9 .675  28
2019 08 15 18  00 22 30.712   +32 32 23.41  .40695 1.2622 119.2 21.9 .699  28
2019 08 15 19  00 22 35.270   +32 33 23.64  .40694 1.2622 119.2 21.9 .723  28
2019 08 15 20  00 22 39.824   +32 34 23.78  .40694 1.2623 119.2 21.9 .747  28
2019 08 15 21  00 22 44.373   +32 35 23.84  .40693 1.2623 119.2 21.9 .772  28
2019 08 15 22  00 22 48.918   +32 36 23.82  .40693 1.2624 119.2 21.9 .797  28
2019 08 15 23  00 22 53.458   +32 37 23.72  .40692 1.2624 119.2 21.9 .822  29
2019 08 16 00  00 22 57.995   +32 38 23.53  .40691 1.2624 119.2 21.9 .847  29
2019 08 16 01  00 23 02.527   +32 39 23.27  .40691 1.2625 119.2 21.9 .873  29
2019 08 16 02  00 23 07.054   +32 40 22.92  .40690 1.2625 119.3 21.9 .899  29
2019 08 16 03  00 23 11.578   +32 41 22.50  .40690 1.2626 119.3 21.9 .926  29
2019 08 16 04  00 23 16.097   +32 42 21.99  .40690 1.2626 119.3 21.9 .953  29
2019 08 16 05  00 23 20.611   +32 43 21.40  .40689 1.2627 119.3 21.9 .980  29
2019 08 16 06  00 23 25.122   +32 44 20.72  .40689 1.2627 119.3 21.9 1.01  29
2019 08 16 07  00 23 29.628   +32 45 19.97  .40688 1.2628 119.3 21.9 1.03  29
2019 08 16 08  00 23 34.129   +32 46 19.13  .40688 1.2628 119.3 21.9 1.06  29
2019 08 16 09  00 23 38.627   +32 47 18.22  .40687 1.2629 119.3 21.9 1.09  30
2019 08 16 10  00 23 43.119   +32 48 17.22  .40687 1.2629 119.3 21.9 1.12  30
2019 08 16 11  00 23 47.608   +32 49 16.13  .40686 1.2629 119.4 21.9 1.15  30